Regional Weather Roundup
Issued by NWS

Home | Current Version | Previous Version | Text Only | Print | Product List | Glossary Off
Versions: 1 2 3 4 5 6 7 8 9 10 11 12 13 14 15 16 17 18 19 20 21 22 23 24 25 26 27 28 29 30 31 32 33 34 35 36 37 38 39 40 41 42 43 44 45 46 47 48 49 50

000
ASUS43 KLMK 272310
RWRKY
KENTUCKY REGIONAL WEATHER ROUNDUP
NATIONAL WEATHER SERVICE LOUISVILLE KY
700 PM EDT TUE JUN 27 2017

NOTE "FAIR" INDICATES FEW OR NO CLOUDS BELOW 12,000 FEET
WITH NO SIGNIFICANT WEATHER AND/OR OBSTRUCTIONS TO VISIBILITY.

KYZ001>023-026-027-061>063-070>075-280000-
WESTERN AND SOUTH CENTRAL KENTUCKY

CITY           SKY/WX    TMP DP  RH WIND       PRES   REMARKS
PADUCAH        SUNNY     80  53  39 SE6       30.05F
HENDERSON      SUNNY     79  51  37 CALM      30.07F
OWENSBORO      SUNNY     78  51  38 CALM      30.07F
HOPKINSVILLE   MOSUNNY   79  53  39 NE3       30.06F
BOWLING GREEN  SUNNY     79  52  38 NE5       30.07F
GLASGOW        MOSUNNY   76  50  39 CALM      30.08F
$$

KYZ024-025-028>034-038-045-046-053-280000-
NORTH CENTRAL KENTUCKY

CITY           SKY/WX    TMP DP  RH WIND       PRES   REMARKS
LOUISVILLE/SDF MOSUNNY   78  46  32 CALM      30.08S
LOUISVILLE/LOU SUNNY     79  45  29 VRB3      30.09S
FORT KNOX      SUNNY     75  47  36 CALM      30.07F
$$

KYZ035>037-039>044-047>052-055>060-089>105-280000-
NORTHEAST KENTUCKY

CITY           SKY/WX    TMP DP  RH WIND       PRES   REMARKS
LEXINGTON      SUNNY     76  43  30 NW5       30.11F
COVINGTON      PTSUNNY   73  48  41 W9        30.10F
FRANKFORT      SUNNY     76  43  30 NW5       30.09F
$$

KYZ054-064>069-076>088-106>120-280000-
SOUTHEAST KENTUCKY

CITY           SKY/WX    TMP DP  RH WIND       PRES   REMARKS
JACKSON        MOSUNNY   73  48  41 VRB3      30.12S
LONDON         PTSUNNY   76  46  34 N10       30.10F
SOMERSET       SUNNY     73  45  35 NW6       30.11S
MIDDLESBORO    SUNNY     76  50  40 N5        30.10S
MONTICELLO     CLEAR     76  52  43 W7        30.12S
$$





USA.gov is the U.S. government's official web portal to all federal, state and local government web resources and services.